Grand Prairie, TX

4:09 PM CDT on May 28, 2017 (GMT -0500)
Grand Prairie Municipal

Weather History for KGPM - August, 2013

Change the Weather History Date:

Wednesday, August 7, 2013

  Actual Average (KRBD) Record (KRBD)
Temperature  
Mean Temperature 90 °F -  
Max Temperature 102 °F 93 °F 105 °F (2012)
Min Temperature 78 °F 72 °F 62 °F (1997)
Cooling Degree Days 25    
Growing Degree Days 40 (Base 50)    
Moisture  
Dew Point 64 °F    
Average Humidity 47    
Maximum Humidity 70    
Minimum Humidity 26    
Precipitation  
Precipitation 0.00 in - - ()
Sea Level Pressure  
Sea Level Pressure 29.86 in    
Wind  
Wind Speed 10 mph (South)    
Max Wind Speed 15 mph    
Max Gust Speed 22 mph    
Visibility 9 miles    
Events      
Averages and records for this station are not official NWS values.
T = Trace of Precipitation, MM = Missing Value Source: NWS Daily Summary

Daily Weather History Graph

Daily Weather History Graph

Search for Another Location

Airport or City:

Trip Planner

Search our weather history database for the weather conditions in past years. The results will help you decide how hot, cold, wet, or windy it might be!

Date:

Astronomy

Aug. 07, 2013 Rise Set
Actual Time 6:46 AM CDT 8:20 PM CDT
Civil Twilight 6:20 AM CDT 8:47 PM CDT
Nautical Twilight 5:48 AM CDT 9:18 PM CDT
Astronomical Twilight 5:14 AM CDT 9:52 PM CDT
Moon 7:30 AM CDT (8/7) 8:36 PM CDT (8/7)
Length of Visible Light 14h 27m
Length of Day
13h 34m
New Moon, 1% of the Moon is Illuminated
Aug 7
New Moon
Aug 14
First Quarter
Aug 20
Full
Aug 28
Last Quarter
Sep 5
New

Hourly Weather History & Observations

Time (CDT) Temp. Heat Index Dew Point Humidity Pressure Visibility Wind Dir Wind Speed Gust Speed Precip Events Conditions
12:15 AM 87.8 °F 88.5 °F 62.6 °F 43% 29.87 in 10.0 mi South 13.8 mph - N/A   Clear
12:35 AM 89.6 °F 90.1 °F 62.6 °F 40% 29.88 in 10.0 mi South 11.5 mph 16.1 mph N/A   Clear
12:55 AM 87.8 °F 88.5 °F 62.6 °F 43% 29.87 in 10.0 mi South 11.5 mph 18.4 mph N/A   Clear
1:15 AM 87.8 °F 88.5 °F 62.6 °F 43% 29.87 in 10.0 mi South 12.7 mph 18.4 mph N/A   Clear
1:35 AM 87.8 °F 89.4 °F 64.4 °F 46% 29.87 in 10.0 mi South 9.2 mph 16.1 mph N/A   Clear
1:55 AM 86.0 °F 87.3 °F 64.4 °F 48% 29.88 in 10.0 mi South 15.0 mph 19.6 mph N/A   Clear
2:15 AM 86.0 °F 87.3 °F 64.4 °F 48% 29.87 in 10.0 mi South 11.5 mph 19.6 mph N/A   Clear
2:35 AM 86.0 °F 87.3 °F 64.4 °F 48% 29.87 in 10.0 mi South 10.4 mph 16.1 mph N/A   Clear
2:55 AM 86.0 °F 87.3 °F 64.4 °F 48% 29.87 in 10.0 mi South 12.7 mph 19.6 mph N/A   Clear
3:15 AM 84.2 °F 86.6 °F 66.2 °F 55% 29.87 in 10.0 mi South 10.4 mph 18.4 mph N/A   Clear
3:35 AM 82.4 °F 85.4 °F 68.0 °F 62% 29.86 in 10.0 mi South 11.5 mph 21.9 mph N/A   Clear
3:55 AM 82.4 °F 85.4 °F 68.0 °F 62% 29.86 in 10.0 mi South 9.2 mph 17.3 mph N/A   Clear
4:15 AM 82.4 °F 85.4 °F 68.0 °F 62% 29.87 in 10.0 mi South 10.4 mph 18.4 mph N/A   Clear
4:35 AM 82.4 °F 85.4 °F 68.0 °F 62% 29.86 in 10.0 mi South 13.8 mph 18.4 mph N/A   Clear
4:55 AM 80.6 °F 83.2 °F 68.0 °F 65% 29.86 in 10.0 mi South 9.2 mph 17.3 mph N/A   Clear
5:15 AM 80.6 °F 83.2 °F 68.0 °F 65% 29.86 in 10.0 mi South 9.2 mph 17.3 mph N/A   Clear
5:35 AM 80.6 °F 83.2 °F 68.0 °F 65% 29.86 in 7.0 mi South 9.2 mph 17.3 mph N/A   Clear
5:55 AM 80.6 °F 83.2 °F 68.0 °F 65% 29.87 in 7.0 mi SSW 6.9 mph 18.4 mph N/A   Clear
6:15 AM 80.6 °F 83.2 °F 68.0 °F 65% 29.87 in 7.0 mi SSW 10.4 mph - N/A   Clear
6:35 AM 78.8 °F - 68.0 °F 69% 29.87 in 7.0 mi South 8.1 mph - N/A   Clear
6:50 AM 80.6 °F 83.9 °F 69.8 °F 70% 29.87 in 10.0 mi South 6.9 mph - N/A   Clear
6:55 AM 78.8 °F - 68.0 °F 69% 29.87 in 7.0 mi South 9.2 mph 16.1 mph N/A   Clear
7:50 AM 80.6 °F 83.9 °F 69.8 °F 70% 29.89 in 10.0 mi North - - N/A   Clear
8:50 AM 82.4 °F 86.3 °F 69.8 °F 66% 29.90 in 10.0 mi North - - N/A   Clear
9:50 AM 86.0 °F 90.4 °F 69.8 °F 58% 29.92 in 10.0 mi South 10.4 mph - N/A   Clear
10:50 AM 89.6 °F 93.4 °F 68.0 °F 49% 29.92 in 10.0 mi South 9.2 mph - N/A   Clear
11:50 AM 93.2 °F 94.9 °F 64.4 °F 38% 29.91 in 10.0 mi SSW 10.4 mph - N/A   Clear
12:50 PM 96.8 °F 98.0 °F 62.6 °F 32% 29.89 in 10.0 mi South 10.4 mph 16.1 mph N/A   Clear
1:50 PM 100.4 °F 102.4 °F 62.6 °F 29% 29.87 in 10.0 mi South 12.7 mph 16.1 mph N/A   Clear
2:58 PM 102.2 °F 103.6 °F 60.8 °F 26% 29.86 in 10.0 mi South 6.9 mph 17.3 mph N/A   Clear
3:50 PM 102.2 °F 103.6 °F 60.8 °F 26% 29.83 in 10.0 mi South 9.2 mph - N/A   Clear
4:56 PM 102.2 °F 103.6 °F 60.8 °F 26% 29.81 in 10.0 mi SSE 8.1 mph 17.3 mph N/A   Clear
5:55 PM 102.2 °F 103.6 °F 60.8 °F 26% 29.80 in 10.0 mi South 10.4 mph - N/A   Clear
6:57 PM 100.4 °F 101.3 °F 60.8 °F 27% 29.78 in 10.0 mi SSE 10.4 mph - N/A   Clear
7:50 PM 98.6 °F 98.5 °F 59.0 °F 27% 29.79 in 10.0 mi SSE 8.1 mph - N/A   Clear
9:15 PM 95.0 °F 95.2 °F 60.8 °F 32% 29.81 in 10.0 mi SSE 5.8 mph - N/A   Clear
9:35 PM 93.2 °F 93.3 °F 60.8 °F 34% 29.82 in 10.0 mi SSE 5.8 mph - N/A   Clear
9:55 PM 91.4 °F 90.7 °F 59.0 °F 34% 29.82 in 10.0 mi SSE 5.8 mph - N/A   Clear
10:15 PM 91.4 °F 90.7 °F 59.0 °F 34% 29.83 in 7.0 mi South 5.8 mph - N/A   Clear
10:35 PM 91.4 °F 91.4 °F 60.8 °F 36% 29.84 in 7.0 mi South 4.6 mph - N/A   Clear
10:55 PM 89.6 °F 89.5 °F 60.8 °F 38% 29.85 in 7.0 mi SSE 4.6 mph - N/A   Clear
11:15 PM 89.6 °F 89.5 °F 60.8 °F 38% 29.85 in 7.0 mi SSE 3.5 mph - N/A   Clear
11:35 PM 87.8 °F 87.6 °F 60.8 °F 40% 29.86 in 10.0 mi SSE 3.5 mph - N/A   Clear
11:55 PM 89.6 °F 89.5 °F 60.8 °F 38% 29.86 in 10.0 mi South 4.6 mph - N/A   Clear